Regional Weather Roundup
Issued by NWS

Home | Current Version | Previous Version | Text Only | Print | Product List | Glossary On
Versions: 1 2 3 4 5 6 7 8 9 10 11 12 13 14 15 16 17 18 19 20 21 22 23 24 25 26 27 28 29 30 31 32 33 34 35 36 37 38 39 40 41 42 43 44 45 46 47 48 49 50
000
ASUS43 KMPX 270410
RWRMN
WEATHER ROUNDUP FOR MINNESOTA
NATIONAL WEATHER SERVICE TWIN CITIES/CHANHASSEN MN
1100 PM CDT WED JUL 26 2017


NOTE: "FAIR" INDICATES FEW OR NO CLOUDS BELOW 12,000 FEET WITH NO
SIGNIFICANT WEATHER AND/OR OBSTRUCTIONS TO VISIBILITY. N/A MEANS
CURRENT SKY AND/OR WEATHER CONDITIONS ARE NOT AVAILABLE.

MNZ060>063-068>070-270500-
   Twin Cities Metro

CITY           SKY/WX    TMP DP  RH WIND       PRES   REMARKS
TWIN CITIES    PTCLDY    75  62  64 CALM      30.02R
ST PAUL        CLEAR     69  67  93 S3        30.02R
CRYSTAL        CLEAR     70  60  70 NW3       30.01R
BLAINE         CLEAR     70  63  78 CALM      30.02S
LAKEVILLE      CLEAR     63  63 100 CALM      30.02S
EDEN PRAIRIE   CLEAR     72  63  73 N3        30.01R
SOUTH ST PAUL  CLEAR     70  64  80 CALM      30.01S
LAKE ELMO      FAIR      64  64 100 CALM      30.03S
$$
MNZ001>005-007-008-013>017-022>024-027-028-270500-
   Northwest Minnesota

CITY           SKY/WX    TMP DP  RH WIND       PRES   REMARKS
BEMIDJI        CLEAR     61  57  86 NW5       30.07S
HALLOCK        CLEAR     64  61  88 CALM      30.07S
ROSEAU         CLEAR     66  61  82 CALM      30.07S
WARROAD        CLEAR     66  61  82 NW5       30.07S
THIEF RVR FALL CLEAR     64  60  87 NW5       30.09S
CROOKSTON      CLEAR     64  61  88 N3        30.09R
FOSSTON        CLEAR     61  57  88 CALM      30.09S
DETROIT LAKES  CLEAR     66  61  82 NW5       30.11R
MOORHEAD       CLEAR     64  61  88 CALM      30.09S
PARK RAPIDS    CLEAR     64  60  87 NW6       30.08R
MAHNOMEN       FAIR      63  58  86 NW3       30.09S
$$
MNZ006-009>011-018-025>026-270500-
   North Central Minnesota

CITY           SKY/WX    TMP DP  RH WIND       PRES   REMARKS
BAUDETTE       CLEAR     62  60  93 W6        30.05S
FLAG ISLAND    CLEAR     72  61  68 NW6       30.05R
INTL FALLS     MOCLDY    61  58  90 CALM      30.03S
WASKISH        CLEAR     63  59  88 CALM      30.06S
BIG FORK       FOG       57  57 100 CALM      30.06R VSB 3/4
LONGVILLE      CLEAR     61  59  94 CALM      30.06S
GRAND RAPIDS   CLEAR     61  59  93 CALM      30.07S
CRANE LAKE     CLEAR     57  55  94 CALM      30.05S
ORR            CLEAR     61  57  88 CALM      30.02S
COOK             N/A     61  61 100 CALM      30.05S
WALKER         FAIR      61  59  92 NW5       30.07R
$$
MNZ012-019>021-037-270500-
   Northeast Minnesota

CITY           SKY/WX    TMP DP  RH WIND       PRES   REMARKS
DULUTH         CLEAR     66  60  81 N5        30.03R
ELY            CLEAR     61  57  88 CALM      30.04S
HIBBING        CLEAR     58  57  97 CALM      30.05R
EVELETH        CLEAR     60  56  86 CALM      30.06R
DULUTH HARBOR  CLEAR     73  63  68 NW6       30.01R
TWO HARBORS    CLEAR     70  61  73 N3        30.00S
SILVER BAY     CLEAR     66  59  77 CALM      29.99S
GRAND MARAIS     N/A     72  58  61 N5        29.97R
G MARAIS ARPRT CLEAR     63  54  72 NW3       30.05R
$$
MNZ029>031-032-039>041-046>048-054>057-064-270500-
   West Central Minnesota

CITY           SKY/WX    TMP DP  RH WIND       PRES   REMARKS
FERGUS FALLS   CLEAR     66  61  82 CALM      30.08R
WHEATON        CLEAR     66  61  82 N3        30.10R
MORRIS         CLEAR     70  63  78 N7        30.07S
ALEXANDRIA     CLEAR     68  62  81 N6        30.09S
ELBOW LAKE     FAIR      67  63  86 CALM      30.09R HAZE
WADENA         CLEAR     63  59  88 CALM      30.08R
GLENWOOD       CLEAR     66  63  88 N5        30.08S
APPLETON       CLEAR     68  61  77 CALM      30.06S
BENSON         CLEAR     66  61  82 CALM      30.08S
ORTONVILLE     CLEAR     70  63  78 MISG      30.08S
MADISON        CLEAR     70  63  78 N7        30.07S
WILLMAR        FAIR      66  63  88 NW5       30.07S
$$
MNZ033>034-036-042>043-049>051-058-059-270500-
   Central Minnesota

CITY           SKY/WX    TMP DP  RH WIND       PRES   REMARKS
ST CLOUD       CLEAR     66  64  93 CALM      30.04R
SAUK CENTRE    FAIR      68  63  82 NW6       30.07S
PAYNESVILLE    PTCLDY    65  62  89 W3        30.06S
AITKIN         FOG       57  57 100 CALM      30.05R VSB 1
PINE RIVER     CLEAR     61  57  88 CALM      30.10R
BRAINERD       CLEAR     63  60  90 CALM      30.06R
STAPLES        CLEAR     66  59  77 CALM      30.08R
LONG PRAIRIE   FAIR      66  61  82 NW5       30.08R
LITTLE FALLS   CLEAR     64  61  88 CALM      30.06R
LITCHFIELD     CLEAR     72  64  78 NW6       30.06R
BUFFALO        CLEAR     71  61  70 CALM      30.04S
MAPLE LAKE     CLEAR     69  63  81 CALM      30.05R
HUTCHINSON     CLEAR     67  65  93 W3        30.06R
$$
MNZ037-044-045-052-053-270500-
   East Central Minnesota

CITY           SKY/WX    TMP DP  RH WIND       PRES   REMARKS
PRINCETON      PTCLDY    66  63  88 CALM      30.04R
MORA           CLEAR     64  61  88 CALM      30.05S
CAMBRIDGE      PTCLDY    66  61  82 CALM      30.02R
RUSH CITY      CLEAR     64  60  90 CALM      30.03R
MOOSE LAKE     CLEAR     64  59  82 CALM      30.02R
HINCKLEY       FAIR      66  63  88 CALM      30.03R
CLOQUET        CLEAR     64  57  77 CALM      30.04R
MCGREGOR       CLEAR     63  59  88 CALM      30.05R
$$
MNZ071>073-080-081-089-090-097-098-270500-
   Southwest Minnesota

CITY           SKY/WX    TMP DP  RH WIND       PRES   REMARKS
MONTEVIDEO     CLEAR     66  57  72 N5        30.07S
CANBY          CLEAR     65  62  90 CALM      30.09R
MARSHALL       CLEAR     67  63  87 NW5       30.07S
REDWOOD FALLS  CLEAR     70  61  73 NW6       30.05R
OLIVIA         CLEAR     68  63  83 NW3       30.05S
PIPESTONE      CLEAR     70  61  73 NE5       30.09S
WINDOM         CLEAR     64  61  88 NW5       30.07S
WORTHINGTON    CLEAR     63  61  93 NW3       30.08S
JACKSON        CLEAR     64  61  88 CALM      30.07S
TRACY          CLEAR     68  64  87 NW5       30.08S
SLAYTON        HVY RAIN  64  61  90 NW6       30.09S
$$
MNZ065>067-074>077-082>085-091>093-270500-
   South Central Minnesota

CITY           SKY/WX    TMP DP  RH WIND       PRES   REMARKS
MANKATO        CLEAR     69  63  81 N5        30.03S
NEW ULM        CLEAR     68  63  83 NW6       30.04S
ST JAMES       CLEAR     64  63  94 NW3       30.05S
FAIRMONT       CLEAR     66  63  90 NW3       30.05R
GLENCOE        CLEAR     69  66  91 CALM      30.03S
FARIBAULT      CLEAR     66  64  94 CALM      30.03S
OWATONNA       CLEAR     66  64  94 CALM      30.03S
WASECA         CLEAR     63  61  94 NW5       30.04S
ALBERT LEA     CLEAR     68  66  94 N3        30.03S
$$
MNZ078>079-086>088-094>096-270500-
   Southeast Minnesota

CITY           SKY/WX    TMP DP  RH WIND       PRES   REMARKS
ROCHESTER      CLEAR     69  67  93 N7        30.02F
RED WING       CLEAR     66  63  88 CALM      30.00S
STANTON        CLEAR     66  64  93 CALM      30.01S
DODGE CENTER   PTCLDY    66  63  88 N3        30.03F
WINONA         CLEAR     70  70 100 CALM      29.99S
AUSTIN         CLEAR     70  64  83 CALM      30.01F
PRESTON        PTCLDY    70  67  90 N6        30.02S
$$
ABBREVIATIONS USED IN REMARKS
   TC - TEMPERATURES IN CELSIUS
  WCI - WIND CHILL INDEX
   HX - HEAT INDEX
  VSB - VISIBILITY
$$




USA.gov is the U.S. government's official web portal to all federal, state and local government web resources and services.